Theta_e
311 310 306 310 318 320 319 321 321 320 324 328 328 340 343 345 350 354 354 357 363 366 366 366 366 364 362 362 362 362 362 362
306 306 313 315 319 323 319 321 322 322 322 330 339 340 347 349 348 352 352 355 362 364 365 365 365 364 363 362 363 363 362 362
306 308 313 318 321 321 318 319 320 320 319 328 339 345 346 347 349 348 351 360 361 364 364 365 366 365 363 363 363 363 363 362
302 307 313 317 321 320 319 320 320 319 319 327 340 341 343 346 348 350 352 361 360 362 364 364 364 364 363 362 362 363 363 362
303 305 309 314 320 317 317 318 319 322 316 324 330 341 345 346 349 350 352 360 358 356 361 363 362 362 362 361 362 362 361 361
304 303 304 312 317 319 317 316 322 321 314 316 324 330 338 345 345 346 348 356 356 356 355 359 360 362 361 361 361 361 361 360
301 302 306 312 310 316 320 317 319 319 319 322 324 325 329 336 342 343 345 353 353 349 352 352 354 359 361 361 361 361 360 360
308 308 307 310 311 312 311 312 314 316 319 321 322 322 323 328 335 339 341 346 353 350 350 349 347 356 357 358 358 358 358 358
307 309 310 309 309 312 310 309 312 312 314 318 319 322 322 323 330 336 342 344 351 356 355 350 348 355 351 350 353 355 356 357
308 310 308 307 310 308 309 310 313 314 315 316 317 319 319 321 324 329 339 339 351 357 358 356 352 353 354 348 348 348 349 354
309 309 309 309 307 307 308 312 313 313 314 314 315 318 320 321 323 329 332 348 348 354 360 357 362 363 355 349 348 347 349 349
308 308 308 306 306 307 308 311 311 312 311 312 314 316 318 323 327 333 338 349 350 350 346 358 358 365 368 356 352 349 349 348
306 306 305 307 303 304 309 311 310 311 312 313 314 315 316 322 331 335 333 353 346 349 332 335 361 363 363 363 355 353 349 351
305 306 307 305 298 306 310 310 309 309 311 312 314 315 319 323 329 345 336 342 352 346 349 356 362 361 360 358 360 353 357 355
301 307 306 305 300 306 310 310 309 310 311 311 313 317 321 324 330 338 336 339 340 345 343 358 362 362 362 362 360 359 355 355
299 304 305 302 301 305 308 309 309 310 311 312 313 315 322 323 326 329 331 334 337 339 343 350 352 362 360 359 359 361 358 354
303 306 303 302 303 304 308 308 308 309 311 313 314 318 321 325 327 330 332 335 339 341 346 346 345 347 355 351 354 356 357 361
302 305 303 302 302 305 307 308 309 309 311 313 315 316 319 324 330 329 329 333 340 344 346 347 347 346 343 350 352 352 356 357
298 302 304 302 299 302 306 309 310 311 313 314 314 315 319 322 326 327 331 334 336 342 345 345 346 342 342 352 353 346 351 356
300 298 293 302 292 301 305 307 309 311 312 312 314 316 319 321 323 326 326 332 333 338 341 337 343 340 342 339 336 343 345 349
Wind_Speed
9 13 15 9 10 22 10 7 3 1 1 6 10 13 11 12 18 19 16 13 14 14 15 16 16 15 14 12 12 12 12 12
12 18 21 22 2 10 2 6 3 6 8 9 8 6 12 13 16 17 17 16 17 14 15 15 16 14 14 14 12 13 12 12
17 19 21 16 8 5 9 4 4 2 7 15 10 12 13 11 13 13 17 18 16 14 13 15 14 15 15 16 15 13 14 13
15 20 21 18 6 6 9 12 5 6 1 13 13 13 11 10 10 12 17 16 15 16 14 14 15 15 15 15 16 17 15 14
21 21 21 19 12 9 7 11 5 4 4 11 13 8 5 8 7 12 16 15 13 13 12 13 13 14 14 14 15 15 16 15
18 17 21 20 8 12 10 12 11 4 4 9 9 3 6 7 11 13 12 18 14 11 12 11 11 13 14 14 13 14 14 14
18 19 20 20 11 9 11 13 7 2 10 5 7 3 8 10 11 12 13 15 15 14 12 11 11 11 12 14 15 14 14 14
17 18 14 14 8 14 5 17 10 10 12 14 10 6 9 10 10 12 15 16 16 15 15 13 11 13 11 11 9 10 10 11
18 20 3 12 14 6 11 12 10 11 14 15 15 12 9 11 11 12 13 11 19 15 13 13 10 9 7 7 7 8 12 11
20 17 2 10 13 12 12 15 13 12 14 11 12 7 9 10 14 13 10 12 10 16 13 11 7 10 9 8 8 7 8 9
18 16 12 10 14 14 16 13 11 15 14 13 12 11 9 13 14 7 7 4 11 11 10 7 6 3 8 8 8 8 9 9
18 14 14 15 16 16 17 16 14 12 12 15 10 11 10 9 8 7 5 9 9 9 14 6 7 5 1 7 7 9 9 10
15 17 16 16 19 18 16 17 13 14 13 13 13 13 10 7 4 5 5 3 11 12 11 10 10 5 4 4 5 5 8 10
19 22 21 18 17 18 18 21 18 11 16 12 13 11 10 8 6 0 5 6 1 12 21 26 11 8 6 6 5 8 5 6
20 20 17 18 15 18 17 3 6 11 10 13 9 9 9 6 3 3 7 8 7 8 7 5 10 9 9 9 7 6 7 6
16 14 14 13 14 15 13 14 11 13 13 11 12 11 8 9 6 8 8 7 6 5 7 4 3 9 8 8 8 8 9 9
15 8 13 13 12 15 13 16 15 15 12 12 13 11 8 7 8 7 8 6 5 6 5 4 3 4 7 8 7 8 8 9
16 18 14 15 17 16 18 18 16 13 13 12 12 13 11 6 5 8 6 5 3 3 5 4 3 4 5 4 8 10 10 12
18 17 18 15 16 17 19 19 19 16 14 13 11 10 8 4 9 7 5 4 2 2 2 4 6 5 5 6 4 7 6 9
17 16 14 15 15 18 16 19 18 20 15 11 10 8 5 8 7 6 3 2 5 5 6 5 5 5 7 6 7 8 9 8
Wind_Direction
254 243 246 260 358 302 73 51 297 298 296 31 58 58 97 122 119 119 134 154 132 138 138 141 144 147 146 147 146 143 141 139
263 263 248 257 222 222 330 133 340 337 102 88 39 60 97 129 133 137 141 148 140 141 141 142 144 147 151 150 150 146 144 141
252 245 262 280 226 92 259 43 84 320 113 105 90 96 115 136 140 150 142 128 144 138 142 144 148 151 154 155 151 151 149 146
253 253 257 259 226 158 250 296 123 271 103 108 129 119 134 134 148 149 126 136 145 143 148 151 152 156 158 160 156 153 153 149
250 262 264 258 176 224 272 268 268 95 212 122 100 70 72 141 146 135 133 132 146 160 157 154 155 155 160 160 159 156 153 149
263 253 260 273 206 199 231 260 102 78 260 93 89 134 169 224 158 150 146 135 145 165 171 172 167 163 160 160 159 154 153 153
247 270 278 274 279 221 227 253 280 110 257 329 96 271 213 205 175 171 157 141 149 172 175 186 175 173 163 167 161 160 158 158
261 242 261 307 277 282 213 253 228 253 275 283 261 258 269 216 226 183 165 163 155 169 171 186 190 161 179 182 185 182 182 174
241 272 281 304 305 305 275 271 241 258 264 236 250 220 245 263 243 216 193 179 160 161 162 184 213 154 173 185 190 193 195 182
268 275 190 260 275 280 264 267 275 287 284 291 271 275 255 235 267 267 202 175 193 149 156 178 196 161 172 187 181 190 202 199
265 265 276 261 267 261 251 256 266 261 284 277 279 277 263 268 274 293 299 99 122 125 161 159 216 195 170 184 182 191 182 200
265 249 255 250 253 252 250 254 236 242 241 262 264 270 256 261 256 293 315 101 97 76 45 334 228 215 273 180 195 183 185 190
253 262 245 248 251 251 254 258 223 232 228 240 233 237 251 244 289 250 269 117 143 144 153 204 218 233 219 236 198 211 203 182
245 230 227 232 256 257 255 222 226 232 254 252 251 245 266 256 235 166 6 9 328 177 184 197 180 180 232 234 222 225 217 187
242 246 213 211 247 258 243 118 226 248 233 245 238 218 250 282 311 47 34 20 18 20 4 192 177 186 194 215 229 244 217 218
259 262 187 227 248 247 264 194 214 227 231 243 251 232 197 197 240 98 77 34 8 345 324 338 261 197 205 206 214 218 229 218
293 243 217 213 243 261 277 270 220 233 231 224 228 236 222 209 162 152 105 77 22 355 331 309 307 263 202 214 223 220 227 226
279 291 287 275 259 256 253 257 259 248 249 242 233 224 228 216 146 99 118 153 104 43 11 344 296 275 283 253 214 218 209 216
273 277 269 257 266 262 254 254 256 255 241 242 246 244 224 159 89 82 59 31 340 48 56 10 321 308 300 281 262 271 262 209
262 267 268 267 269 258 260 232 233 230 225 231 260 267 153 96 88 84 45 345 11 33 27 328 357 328 316 297 292 285 255 259